Tracking 29892 objects as of 21-Nov-2024
HD Live streaming from Space Station
objects crossing your sky now

OPS 4682 DEB

Track OPS 4682 DEB now!
10-day predictions


NORAD ID: 38422
Int'l Code: 1965-027EB
Perigee: 1,251.8 km
Apogee: 1,307.8 km
Inclination: 90.3 °
Period: 111.0 minutes
Semi major axis: 7650 km
RCS: 0.0133 m2 (small)
Launch date: April 3, 1965
Source: United States (US)
Launch site: AIR FORCE WESTERN TEST RANGE (AFWTR)

Note: This is SATELLITE DEBRIS
Your satellite tracking list
Your tracking list is empty




NASA's NSSDC Master Catalog

Two Line Element Set (TLE):
1 38422U 65027EB  24324.59045717  .00000860  00000-0  29348-2 0  9994
2 38422  90.2512  10.7394 0036546 134.6809 225.7300 12.97309438588612
Source of the keplerian elements: AFSPC